Change the Weather History Date:

Monday, July 15, 2013

  Actual Average Record
Temperature  
Mean Temperature 77 °F 79 °F  
Max Temperature 84 °F 88 °F 99 °F (1952)
Min Temperature 70 °F 70 °F 51 °F (1967)
Cooling Degree Days 12 14  
Month to date cooling degree days 157 206  
Year to date cooling degree days 622 702  
Since 1 June cooling degree days 477 527  
Growing Degree Days 26 (Base 50)    
Moisture  
Dew Point 69 °F    
Average Humidity 81    
Maximum Humidity 100    
Minimum Humidity 62    
Precipitation  
Precipitation 0.01 in 0.14 in 3.92 in (1949)
Month to date precipitation 6.69 2.27  
Year to date precipitation 27.99 29.58  
Sea Level Pressure  
Sea Level Pressure 30.29 in    
Wind  
Wind Speed 8 mph (East)    
Max Wind Speed 17 mph    
Max Gust Speed 23 mph    
Visibility 10 miles    
Events Rain    
T = Trace of Precipitation, MM = Missing Value Source: NWS Daily Summary

Daily Weather History Graph

Daily Weather History Graph

Search for Another Location

Airport or City:

Trip Planner

Search our weather history database for the weather conditions in past years. The results will help you decide how hot, cold, wet, or windy it might be!

Date:

Astronomy

Jul. 15, 2013 Rise Set
Actual Time 6:34 AM EDT 8:47 PM EDT
Civil Twilight 6:06 AM EDT 9:16 PM EDT
Nautical Twilight 5:31 AM EDT 9:51 PM EDT
Astronomical Twilight 4:53 AM EDT 10:28 PM EDT
Moon 1:31 PM EDT (7/15) 12:19 AM EDT (7/15)
Length of Visible Light 15h 10m
Length of Day
14h 13m
Waxing Crescent, 45% of the Moon is Illuminated
Jul 15
Waxing Crescent
Jul 15
First Quarter
Jul 22
Full
Jul 29
Last Quarter
Aug 6
New

Hourly Weather History & Observations

Time (EDT) Temp. Heat Index Dew Point Humidity Pressure Visibility Wind Dir Wind Speed Gust Speed Precip Events Conditions
12:42 AM 69.8 °F - 68.0 °F 94% 30.29 in 10.0 mi East 8.1 mph - N/A   Mostly Cloudy
12:53 AM 70.0 °F - 68.0 °F 93% 30.25 in 10.0 mi East 5.8 mph - N/A   Overcast
1:53 AM 70.0 °F - 68.0 °F 93% 30.25 in 10.0 mi East 6.9 mph - N/A   Overcast
2:53 AM 70.0 °F - 68.0 °F 93% 30.25 in 10.0 mi East 8.1 mph - N/A   Overcast
3:26 AM 69.8 °F - 68.0 °F 94% 30.29 in 10.0 mi East 5.8 mph - N/A   Overcast
3:40 AM 69.8 °F - 68.0 °F 94% 30.29 in 10.0 mi East 8.1 mph - N/A   Overcast
3:53 AM 70.0 °F - 68.0 °F 93% 30.25 in 10.0 mi East 9.2 mph - N/A   Overcast
4:53 AM 70.0 °F - 68.0 °F 93% 30.25 in 6.0 mi East 8.1 mph - N/A   Overcast
5:53 AM 70.0 °F - 69.1 °F 97% 30.27 in 5.0 mi East 6.9 mph - N/A   Overcast
6:53 AM 71.1 °F - 69.1 °F 93% 30.27 in 7.0 mi East 8.1 mph - N/A   Overcast
7:39 AM 71.6 °F - 69.8 °F 94% 30.33 in 7.0 mi East 11.5 mph - N/A   Overcast
7:53 AM 71.1 °F - 68.0 °F 90% 30.29 in 9.0 mi East 10.4 mph - N/A   Overcast
8:48 AM 71.6 °F - 68.0 °F 88% 30.34 in 10.0 mi East 9.2 mph - N/A   Overcast
8:53 AM 73.0 °F - 68.0 °F 84% 30.30 in 10.0 mi East 8.1 mph - N/A   Overcast
9:01 AM 73.4 °F - 68.0 °F 83% 30.34 in 10.0 mi East 9.2 mph - N/A   Mostly Cloudy
9:10 AM 73.4 °F - 68.0 °F 83% 30.34 in 10.0 mi East 8.1 mph - N/A   Mostly Cloudy
9:34 AM 73.4 °F - 69.8 °F 88% 30.34 in 10.0 mi East 10.4 mph - N/A   Overcast
9:53 AM 73.0 °F - 69.1 °F 87% 30.30 in 10.0 mi East 10.4 mph - 0.00 in Rain Light Rain
10:11 AM 73.4 °F - 69.8 °F 88% 30.34 in 10.0 mi East 6.9 mph - 0.00 in Rain Light Rain
10:44 AM 75.2 °F - 69.8 °F 83% 30.35 in 10.0 mi East 6.9 mph - 0.00 in   Overcast
10:53 AM 73.9 °F - 69.1 °F 85% 30.31 in 9.0 mi East 11.5 mph - 0.00 in Rain Light Rain
11:20 AM 77.0 °F - 69.8 °F 78% 30.35 in 10.0 mi ENE 10.4 mph 17.3 mph 0.00 in   Overcast
11:24 AM 75.2 °F - 69.8 °F 83% 30.35 in 10.0 mi East 11.5 mph - 0.00 in   Overcast
11:53 AM 75.9 °F - 69.1 °F 79% 30.31 in 10.0 mi ENE 5.8 mph - 0.00 in   Overcast
12:12 PM 77.0 °F - 69.8 °F 78% 30.35 in 10.0 mi ENE 9.2 mph - N/A   Mostly Cloudy
12:53 PM 79.0 °F - 69.1 °F 72% 30.30 in 10.0 mi ENE 10.4 mph - 0.00 in Rain Light Rain
1:33 PM 78.8 °F - 69.8 °F 74% 30.33 in 10.0 mi East 8.1 mph - 0.00 in   Overcast
1:53 PM 81.0 °F 84.4 °F 70.0 °F 69% 30.28 in 10.0 mi ENE 12.7 mph 18.4 mph 0.00 in   Mostly Cloudy
2:04 PM 80.6 °F 83.9 °F 69.8 °F 70% 30.32 in 10.0 mi ESE 11.5 mph - N/A   Mostly Cloudy
2:45 PM 77.0 °F - 69.8 °F 78% 30.31 in 5.0 mi ESE 5.8 mph 18.4 mph 0.01 in Rain Rain
2:53 PM 78.1 °F - 71.1 °F 79% 30.27 in 10.0 mi SE 5.8 mph - 0.01 in Rain Light Rain
3:53 PM 82.0 °F 85.9 °F 70.0 °F 67% 30.25 in 10.0 mi ENE 10.4 mph - 0.00 in   Partly Cloudy
4:53 PM 82.0 °F 85.5 °F 69.1 °F 65% 30.23 in 10.0 mi East 11.5 mph 19.6 mph N/A   Scattered Clouds
5:53 PM 80.1 °F 82.3 °F 66.9 °F 64% 30.25 in 10.0 mi East 12.7 mph 20.7 mph N/A   Partly Cloudy
6:53 PM 80.1 °F 82.7 °F 68.0 °F 67% 30.24 in 10.0 mi East 8.1 mph - N/A   Clear
7:53 PM 78.1 °F - 69.1 °F 74% 30.25 in 10.0 mi East 6.9 mph - N/A   Clear
8:53 PM 75.9 °F - 70.0 °F 82% 30.25 in 10.0 mi SE 6.9 mph - N/A   Clear
9:53 PM 75.0 °F - 70.0 °F 84% 30.27 in 10.0 mi ESE 4.6 mph - N/A   Clear
10:53 PM 73.9 °F - 68.0 °F 82% 30.30 in 10.0 mi ESE 3.5 mph - N/A   Clear
11:53 PM 73.0 °F - 69.1 °F 87% 30.30 in 10.0 mi ENE 3.5 mph - N/A   Clear